Location: Ferintosh
(52.7647°N, 112.9692°W)
Time: 00:32:30
(UTC+00:00)

Vanguard 1 Rocket - Pass Details

Date: 25 May 2024
Orbit: 649 x 4221 km, 34.3° (Epoch: 13 June)

Event Time Altitude Azimuth Distance (km) Brightness Sun altitude
Rises 14:54:57 0° 214° (SW) 8,443 12.1 29.6°
Reaches altitude 10° 15:02:26 10° 205° (SSW) 7,244 11.9 30.7°
Maximum altitude 15:19:52 28° 158° (SSE) 4,820 11.7 33.3°
Drops below altitude 10° 15:31:48 10° 107° (ESE) 4,949 12.5 35.1°
Sets 15:35:36 0° 96° (E) 5,487 12.4 35.7°
